| time (UTC) | temp F | wind direction | speed knots | gust knots | rain 1hr in | rain 24hr in | rain mn in | humidity % | barometer mb |
| 20260905175106 | 61 | 292 | 7.0 | 10.4 | 0.00 | 0.05 | 0.05 | 75 | 1018.0 |
| 20260905174105 | 61 | 284 | 6.1 | 8.7 | 0.00 | 0.05 | 0.05 | 75 | 1018.0 |
| 20260905173105 | 60 | 256 | 7.0 | 10.4 | 0.00 | 0.05 | 0.05 | 78 | 1018.1 |
| 20260905172107 | 58 | 287 | 7.0 | 10.4 | 0.00 | 0.05 | 0.05 | 80 | 1018.1 |
| 20260905171105 | 58 | 255 | 7.0 | 9.6 | 0.00 | 0.05 | 0.05 | 81 | 1018.0 |
| 20260905170105 | 58 | 267 | 5.2 | 7.8 | 0.00 | 0.05 | 0.05 | 82 | 1018.0 |
| 20260905165107 | 57 | 270 | 4.3 | 7.0 | 0.00 | 0.05 | 0.05 | 82 | 1018.0 |
| 20260905164107 | 57 | 252 | 5.2 | 7.0 | 0.00 | 0.05 | 0.05 | 82 | 1018.0 |
| 20260905163107 | 57 | 269 | 4.3 | 7.8 | 0.00 | 0.05 | 0.05 | 84 | 1017.9 |
| 20260905162105 | 57 | 275 | 4.3 | 6.1 | 0.00 | 0.05 | 0.05 | 84 | 1017.8 |
| 20260905161107 | 57 | 262 | 5.2 | 6.1 | 0.00 | 0.05 | 0.05 | 85 | 1017.8 |
| 20260905160106 | 57 | 273 | 3.5 | 5.2 | 0.00 | 0.05 | 0.05 | 85 | 1017.9 |
| 20260905155108 | 57 | 261 | 4.3 | 6.1 | 0.00 | 0.05 | 0.05 | 86 | 1017.9 |
| 20260905154106 | 57 | 233 | 1.7 | 2.6 | 0.00 | 0.05 | 0.05 | 87 | 1017.9 |
| 20260905153108 | 56 | 266 | 1.7 | 3.5 | 0.00 | 0.05 | 0.05 | 88 | 1017.8 |
| 20260905152107 | 56 | 270 | 2.6 | 3.5 | 0.00 | 0.05 | 0.05 | 88 | 1017.8 |
| 20260905151108 | 56 | 283 | 1.7 | 3.5 | 0.00 | 0.05 | 0.05 | 89 | 1017.7 |
| 20260905150107 | 55 | 259 | 1.7 | 2.6 | 0.00 | 0.05 | 0.05 | 89 | 1017.6 |
| 20260905145127 | 54 | 23 | 0.0 | 1.7 | 0.00 | 0.05 | 0.05 | 89 | 1017.5 |
| 20260905144107 | 54 | 0.0 | 0.0 | 0.00 | 0.05 | 0.05 | 88 | 1017.4 | |
| 20260905143127 | 54 | 0.0 | 0.0 | 0.00 | 0.05 | 0.05 | 88 | 1017.3 | |
| 20260905142107 | 53 | 0.0 | 0.0 | 0.00 | 0.05 | 0.05 | 87 | 1017.3 | |
| 20260905141109 | 54 | 0.0 | 0.0 | 0.00 | 0.05 | 0.05 | 87 | 1017.1 | |
| 20260905140127 | 54 | 0.0 | 0.0 | 0.00 | 0.05 | 0.05 | 87 | 1017.0 | |
| 20260905135108 | 54 | 203 | 0.0 | 0.9 | 0.00 | 0.05 | 0.05 | 87 | 1016.9 |
| 20260905134107 | 54 | 90 | 0.9 | 1.7 | 0.00 | 0.05 | 0.05 | 87 | 1016.8 |
| 20260905133107 | 54 | 270 | 0.0 | 1.7 | 0.00 | 0.05 | 0.05 | 87 | 1016.7 |
| 20260905132109 | 54 | 270 | 0.0 | 1.7 | 0.00 | 0.05 | 0.05 | 86 | 1016.6 |
| 20260905131107 | 54 | 223 | 1.7 | 3.5 | 0.00 | 0.05 | 0.05 | 87 | 1016.5 |
| 20260905130109 | 54 | 196 | 0.9 | 1.7 | 0.00 | 0.05 | 0.05 | 86 | 1016.4 |
| 20260905125110 | 55 | 266 | 1.7 | 2.6 | 0.00 | 0.05 | 0.05 | 86 | 1016.4 |
| 20260905124109 | 55 | 259 | 2.6 | 4.3 | 0.00 | 0.05 | 0.05 | 86 | 1016.4 |
| 20260905123108 | 55 | 0.0 | 0.0 | 0.00 | 0.05 | 0.05 | 86 | 1016.4 | |
| 20260905122130 | 55 | 240 | 1.7 | 2.6 | 0.00 | 0.05 | 0.05 | 87 | 1016.5 |
| 20260905121108 | 55 | 241 | 0.0 | 1.7 | 0.00 | 0.05 | 0.05 | 87 | 1016.4 |
| 20260905120108 | 54 | 219 | 2.6 | 3.5 | 0.00 | 0.05 | 0.05 | 88 | 1016.4 |
| 20260905115109 | 54 | 251 | 2.6 | 4.3 | 0.00 | 0.05 | 0.05 | 88 | 1016.4 |
| 20260905114129 | 54 | 210 | 1.7 | 2.6 | 0.00 | 0.05 | 0.05 | 88 | 1016.4 |
| 20260905113131 | 54 | 0.0 | 0.0 | 0.00 | 0.05 | 0.05 | 88 | 1016.3 | |
| 20260905112109 | 54 | 0.0 | 0.0 | 0.00 | 0.05 | 0.05 | 88 | 1016.2 | |
| 20260905111109 | 54 | 0.0 | 0.0 | 0.00 | 0.05 | 0.05 | 88 | 1016.2 | |
| 20260905110111 | 54 | 0.0 | 0.0 | 0.00 | 0.05 | 0.05 | 88 | 1016.2 | |
| 20260905105111 | 54 | 0.0 | 0.0 | 0.00 | 0.05 | 0.05 | 87 | 1016.2 | |
| 20260905104131 | 54 | 0.0 | 0.0 | 0.00 | 0.05 | 0.05 | 87 | 1016.2 | |
| 20260905103110 | 54 | 0.0 | 1.7 | 0.00 | 0.05 | 0.05 | 87 | 1016.2 | |
| 20260905102111 | 54 | 225 | 0.0 | 1.7 | 0.00 | 0.05 | 0.05 | 87 | 1016.1 |
| 20260905101130 | 54 | 248 | 0.9 | 1.7 | 0.01 | 0.05 | 0.05 | 87 | 1016.1 |
| 20260905100110 | 54 | 180 | 0.0 | 0.9 | 0.03 | 0.05 | 0.05 | 86 | 1016.2 |
| 20260905095110 | 54 | 0.0 | 0.0 | 0.05 | 0.05 | 0.05 | 86 | 1016.1 | |
| 20260905094132 | 54 | 194 | 0.9 | 1.7 | 0.05 | 0.05 | 0.05 | 85 | 1016.1 |
| 20260905093110 | 54 | 0.0 | 0.0 | 0.05 | 0.05 | 0.05 | 85 | 1016.1 | |
| 20260905092152 | 54 | 0.0 | 0.0 | 0.05 | 0.05 | 0.05 | 85 | 1016.1 | |
| 20260905091110 | 54 | 68 | 0.0 | 0.9 | 0.04 | 0.04 | 0.04 | 84 | 1016.1 |
| 20260905090111 | 54 | 117 | 1.7 | 1.7 | 0.02 | 0.02 | 0.02 | 84 | 1016.0 |
| 20260905085153 | 54 | 0.0 | 0.0 | 0.00 | 0.00 | 0.00 | 84 | 1015.9 | |
| 20260905084111 | 53 | 0.0 | 0.0 | 0.00 | 0.00 | 0.00 | 84 | 1015.9 | |
| 20260905083111 | 53 | 262 | 0.9 | 1.7 | 0.00 | 0.00 | 0.00 | 84 | 1015.8 |
| 20260905082213 | 53 | 0.0 | 0.0 | 0.00 | 0.00 | 0.00 | 83 | 1015.7 | |
| 20260905081113 | 53 | 0.0 | 0.0 | 0.00 | 0.00 | 0.00 | 83 | 1015.7 | |
| 20260905080113 | 53 | 0.0 | 0.0 | 0.00 | 0.00 | 0.00 | 83 | 1015.7 | |
| 20260905075113 | 52 | 186 | 0.0 | 0.9 | 0.00 | 0.00 | 0.00 | 83 | 1015.6 |
| 20260905074113 | 52 | 0.0 | 0.0 | 0.00 | 0.00 | 0.00 | 82 | 1015.4 | |
| 20260905073112 | 52 | 204 | 0.9 | 1.7 | 0.00 | 0.00 | 0.00 | 82 | 1015.4 |
| 20260905072113 | 52 | 0.0 | 0.0 | 0.00 | 0.00 | 0.00 | 81 | 1015.4 | |
| 20260905071112 | 52 | 0.0 | 0.0 | 0.00 | 0.00 | 0.00 | 80 | 1015.3 | |
| 20260905070132 | 52 | 0.0 | 0.0 | 0.00 | 0.00 | 0.00 | 80 | 1015.3 | |
| 20260905065112 | 52 | 0.0 | 0.0 | 0.00 | 0.00 | 0.00 | 79 | 1015.2 | |
| 20260905064112 | 52 | 192 | 0.0 | 1.7 | 0.00 | 0.00 | 0.00 | 77 | 1015.1 |
| 20260905063112 | 53 | 29 | 0.9 | 1.7 | 0.00 | 0.00 | 0.00 | 76 | 1014.9 |
| 20260905062113 | 54 | 0.0 | 0.0 | 0.00 | 0.00 | 0.00 | 75 | 1014.9 | |
| 20260905061113 | 54 | 0.0 | 0.0 | 0.00 | 0.00 | 0.00 | 74 | 1014.8 | |
| 20260905060112 | 55 | 0.0 | 0.0 | 0.00 | 0.00 | 0.00 | 72 | 1014.8 | |
| 20260905055113 | 56 | 7 | 0.0 | 1.7 | 0.00 | 0.00 | 0.00 | 71 | 1014.8 |
| 20260905054113 | 57 | 0.0 | 0.0 | 0.00 | 0.00 | 0.00 | 70 | 1014.8 | |
| 20260905053113 | 57 | 0.0 | 0.0 | 0.00 | 0.00 | 0.00 | 70 | 1014.8 | |
| 20260905052113 | 58 | 180 | 0.0 | 0.9 | 0.00 | 0.00 | 0.00 | 69 | 1014.8 |
| 20260905051113 | 58 | 308 | 1.7 | 2.6 | 0.00 | 0.00 | 0.00 | 69 | 1014.8 |
| 20260905050114 | 58 | 220 | 1.7 | 5.2 | 0.00 | 0.00 | 0.00 | 68 | 1014.8 |
| 20260905045113 | 58 | 196 | 0.9 | 1.7 | 0.00 | 0.00 | 0.00 | 67 | 1014.9 |
| 20260905044114 | 59 | 254 | 0.9 | 1.7 | 0.00 | 0.00 | 0.00 | 66 | 1014.9 |
| 20260905043114 | 59 | 198 | 0.9 | 2.6 | 0.00 | 0.00 | 0.00 | 64 | 1014.9 |
| 20260905042115 | 60 | 186 | 0.0 | 1.7 | 0.00 | 0.00 | 0.00 | 64 | 1014.9 |
| 20260905041114 | 60 | 256 | 2.6 | 5.2 | 0.00 | 0.00 | 0.00 | 63 | 1015.0 |
| 20260905040114 | 61 | 261 | 1.7 | 3.5 | 0.00 | 0.00 | 0.00 | 63 | 1014.9 |
| 20260905035114 | 61 | 265 | 2.6 | 3.5 | 0.00 | 0.00 | 0.00 | 62 | 1014.8 |
| 20260905034115 | 61 | 258 | 3.5 | 6.1 | 0.00 | 0.00 | 0.00 | 62 | 1014.8 |
| 20260905033136 | 61 | 258 | 3.5 | 6.1 | 0.00 | 0.00 | 0.00 | 61 | 1014.8 |
| 20260905032116 | 61 | 248 | 2.6 | 4.3 | 0.00 | 0.00 | 0.00 | 61 | 1014.8 |
| 20260905031116 | 61 | 244 | 2.6 | 4.3 | 0.00 | 0.00 | 0.00 | 60 | 1014.7 |
| 20260905030115 | 61 | 197 | 1.7 | 2.6 | 0.00 | 0.00 | 0.00 | 59 | 1014.6 |
| 20260905025115 | 62 | 234 | 2.6 | 3.5 | 0.00 | 0.00 | 0.00 | 57 | 1014.4 |
| 20260905024115 | 62 | 264 | 2.6 | 4.3 | 0.00 | 0.00 | 0.00 | 56 | 1014.3 |
| 20260905023116 | 62 | 254 | 3.5 | 5.2 | 0.00 | 0.00 | 0.00 | 55 | 1014.3 |
| 20260905022115 | 62 | 256 | 4.3 | 5.2 | 0.00 | 0.00 | 0.00 | 57 | 1014.2 |
| 20260905021135 | 63 | 254 | 2.6 | 4.3 | 0.00 | 0.00 | 0.00 | 58 | 1014.1 |
| 20260905020117 | 64 | 263 | 3.5 | 5.2 | 0.00 | 0.00 | 0.00 | 57 | 1014.0 |
| 20260905015116 | 65 | 270 | 4.3 | 7.8 | 0.00 | 0.00 | 0.00 | 57 | 1013.9 |
| 20260905014136 | 66 | 260 | 7.0 | 9.6 | 0.00 | 0.00 | 0.00 | 55 | 1013.7 |
| 20260905013116 | 69 | 269 | 7.0 | 13.0 | 0.00 | 0.00 | 0.00 | 51 | 1013.5 |
| 20260905012116 | 71 | 270 | 1.7 | 2.6 | 0.00 | 0.00 | 0.00 | 44 | 1013.2 |
| 20260905011118 | 72 | 87 | 0.9 | 1.7 | 0.00 | 0.00 | 0.00 | 42 | 1013.0 |
| 20260905010116 | 73 | 53 | 3.5 | 5.2 | 0.00 | 0.00 | 0.00 | 38 | 1012.9 |
| 20260905005018 | 74 | 354 | 3.5 | 5.2 | 0.00 | 0.00 | 0.00 | 39 | 1012.9 |
| 20260905004118 | 72 | 338 | 2.6 | 4.3 | 0.00 | 0.00 | 0.00 | 40 | 1012.8 |
| 20260905003116 | 72 | 19 | 3.5 | 6.1 | 0.00 | 0.00 | 0.00 | 41 | 1012.8 |
| 20260905002118 | 73 | 83 | 5.2 | 6.1 | 0.00 | 0.00 | 0.00 | 39 | 1012.7 |
| 20260905001117 | 72 | 76 | 4.3 | 6.1 | 0.00 | 0.00 | 0.00 | 39 | 1012.7 |
| 20260905000017 | 71 | 54 | 2.6 | 3.5 | 0.00 | 0.00 | 0.00 | 44 | 1012.7 |
| 20260904235017 | 72 | 10 | 2.6 | 4.3 | 0.00 | 0.00 | 0.00 | 41 | 1012.6 |
| 20260904234017 | 72 | 37 | 4.3 | 5.2 | 0.00 | 0.00 | 0.00 | 42 | 1012.6 |
| 20260904233119 | 74 | 9 | 4.3 | 6.1 | 0.00 | 0.00 | 0.00 | 40 | 1012.6 |
| 20260904232118 | 72 | 65 | 5.2 | 8.7 | 0.00 | 0.00 | 0.00 | 40 | 1012.6 |
| 20260904231139 | 71 | 35 | 2.6 | 3.5 | 0.00 | 0.00 | 0.00 | 42 | 1012.7 |
| 20260904230019 | 72 | 50 | 1.7 | 4.3 | 0.00 | 0.00 | 0.00 | 43 | 1012.7 |
| 20260904225018 | 72 | 59 | 3.5 | 6.1 | 0.00 | 0.00 | 0.00 | 42 | 1012.7 |
| 20260904224020 | 73 | 78 | 3.5 | 7.0 | 0.00 | 0.00 | 0.00 | 42 | 1012.7 |
| 20260904223018 | 74 | 41 | 4.3 | 6.1 | 0.00 | 0.00 | 0.00 | 41 | 1012.7 |
| 20260904222018 | 74 | 68 | 2.6 | 6.1 | 0.00 | 0.00 | 0.00 | 41 | 1012.8 |
| 20260904221019 | 73 | 47 | 5.2 | 8.7 | 0.00 | 0.00 | 0.00 | 42 | 1012.8 |
| 20260904220020 | 73 | 80 | 2.6 | 4.3 | 0.00 | 0.00 | 0.00 | 42 | 1012.8 |
| 20260904215019 | 73 | 10 | 6.1 | 10.4 | 0.00 | 0.00 | 0.00 | 42 | 1012.8 |
| 20260904214019 | 73 | 356 | 3.5 | 5.2 | 0.00 | 0.00 | 0.00 | 42 | 1012.8 |
| 20260904213020 | 73 | 41 | 4.3 | 7.0 | 0.00 | 0.00 | 0.00 | 43 | 1012.7 |
| 20260904212019 | 73 | 61 | 3.5 | 6.1 | 0.00 | 0.00 | 0.00 | 43 | 1012.7 |
| 20260904211019 | 73 | 40 | 4.3 | 7.0 | 0.00 | 0.00 | 0.00 | 42 | 1012.7 |
| 20260904210019 | 73 | 36 | 3.5 | 6.1 | 0.00 | 0.00 | 0.00 | 43 | 1012.7 |
| 20260904205101 | 72 | 28 | 5.2 | 9.6 | 0.00 | 0.00 | 0.00 | 44 | 1012.7 |
| 20260904204019 | 73 | 39 | 4.3 | 7.0 | 0.00 | 0.00 | 0.00 | 42 | 1012.8 |
| 20260904203020 | 71 | 37 | 4.3 | 7.0 | 0.00 | 0.00 | 0.00 | 45 | 1012.9 |
| 20260904202020 | 70 | 41 | 4.3 | 6.1 | 0.00 | 0.00 | 0.00 | 46 | 1013.0 |
| 20260904201020 | 69 | 50 | 3.5 | 5.2 | 0.00 | 0.00 | 0.00 | 48 | 1013.0 |
| 20260904200020 | 69 | 5 | 2.6 | 3.5 | 0.00 | 0.00 | 0.00 | 48 | 1013.0 |
| 20260904195020 | 70 | 43 | 3.5 | 7.0 | 0.00 | 0.00 | 0.00 | 47 | 1013.1 |
| 20260904194022 | 69 | 43 | 4.3 | 6.1 | 0.00 | 0.00 | 0.00 | 48 | 1013.1 |
| 20260904193020 | 70 | 56 | 2.6 | 7.0 | 0.00 | 0.00 | 0.00 | 48 | 1013.2 |
| 20260904192022 | 69 | 351 | 2.6 | 4.3 | 0.00 | 0.00 | 0.00 | 48 | 1013.3 |
| 20260904191020 | 69 | 59 | 1.7 | 2.6 | 0.00 | 0.00 | 0.00 | 48 | 1013.4 |
| 20260904190022 | 69 | 19 | 4.3 | 6.1 | 0.00 | 0.00 | 0.00 | 49 | 1013.5 |
| 20260904185021 | 69 | 11 | 1.7 | 2.6 | 0.00 | 0.00 | 0.00 | 47 | 1013.7 |
| 20260904184021 | 70 | 46 | 1.7 | 3.5 | 0.00 | 0.00 | 0.00 | 45 | 1013.6 |
| 20260904183021 | 71 | 41 | 2.6 | 5.2 | 0.00 | 0.00 | 0.00 | 44 | 1013.6 |
| 20260904182021 | 71 | 270 | 2.6 | 3.5 | 0.00 | 0.00 | 0.00 | 43 | 1013.5 |
| 20260904181023 | 70 | 274 | 1.7 | 2.6 | 0.00 | 0.00 | 0.00 | 43 | 1013.4 |
| 20260904180043 | 70 | 66 | 1.7 | 4.3 | 0.00 | 0.00 | 0.00 | 45 | 1013.4 |